Weather History for FAUP - October, 2011

Change the Weather History Date:

Friday, October 28, 2011

  Actual Average Record
Temperature  
Mean Temperature 68 °F -  
Max Temperature 86 °F 88 °F 98 °F (2012)
Min Temperature 51 °F 60 °F 50 °F (2010)
Cooling Degree Days 4    
Growing Degree Days 18 (Base 50)    
Moisture  
Dew Point 27 °F    
Average Humidity 22    
Maximum Humidity 47    
Minimum Humidity 4    
Precipitation  
Precipitation 0.00 in 0.00 in - ()
Sea Level Pressure  
Sea Level Pressure 29.95 in    
Wind  
Wind Speed 5 mph ()    
Max Wind Speed 10 mph    
Max Gust Speed -    
Visibility 6.2 miles    
Events      
Averages and records for this station are not official NWS values.
T = Trace of Precipitation, MM = Missing Value Source: Averaged Metar Reports

Daily Weather History Graph

Daily Weather History Graph

Search for Another Location

Airport or City:

Trip Planner

Search our weather history database for the weather conditions in past years. The results will help you decide how hot, cold, wet, or windy it might be!

Date:

Astronomy

Oct. 28, 2011 Rise Set
Actual Time 5:46 AM SAST 6:51 PM SAST
Civil Twilight 5:21 AM SAST 7:16 PM SAST
Nautical Twilight 4:52 AM SAST 7:45 PM SAST
Astronomical Twilight 4:22 AM SAST 8:15 PM SAST
Moon 6:47 AM SAST (10/28) 8:56 PM SAST (10/28)
Length of Visible Light 13h 54m
Length of Day
13h 05m
Waxing Crescent, 4% of the Moon is Illuminated
Oct 28
Waxing Crescent
Nov 2
First Quarter
Nov 10
Full
Nov 18
Last Quarter
Nov 25
New

Hourly Weather History & Observations

Time (SAST) Temp. Dew Point Humidity Pressure Visibility Wind Dir Wind Speed Gust Speed Precip Events Conditions
12:00 AM 59.0 °F 24.8 °F 27% 29.92 in - WSW 4.6 mph - N/A   Unknown
1:00 AM 57.2 °F 23.0 °F 27% 29.92 in - WSW 3.5 mph - N/A   Clear
2:00 AM 54 °F 22 °F 17%  in 25 mi West 4.6 mph - -  
2:00 AM 53.6 °F 23.0 °F 30% 29.92 in - West 4.6 mph - N/A   Clear
3:00 AM 57.2 °F 23.0 °F 27% 29.92 in - SW 8.1 mph - N/A   Clear
4:00 AM 55.4 °F 32.0 °F 41% 29.95 in - SSW 9.2 mph - N/A   Clear
5:00 AM 55 °F 33 °F 30%  in 25 mi SSW 9.2 mph - -  
5:00 AM 53.6 °F 32.0 °F 44% 29.95 in - SSW 9.2 mph - N/A   Clear
6:00 AM 51.8 °F 32.0 °F 47% 29.98 in 6.2 mi SSW 6.9 mph - N/A   Partly Cloudy
7:00 AM 53.6 °F 33.8 °F 47% 30.01 in 6.2 mi SW 10.4 mph - N/A   Partly Cloudy
8:00 AM 58 °F 32 °F 26%  in 25 mi SSE 5.8 mph - -   Scattered Clouds
8:00 AM 57.2 °F 32.0 °F 38% 30.06 in - SSE 5.8 mph - N/A   Clear
9:00 AM 62.6 °F 32.0 °F 32% 30.04 in - SSE 4.6 mph - N/A   Clear
10:00 AM 66.2 °F 32.0 °F 28% 30.04 in - South 6.9 mph - N/A   Clear
10:25 AM 69.8 °F 32.0 °F 25% 30.04 in - South 6.9 mph - N/A   Clear
11:00 AM 71 °F 31 °F 13%  in 25 mi SSW 6.9 mph - -   Scattered Clouds
11:00 AM 69.8 °F 32.0 °F 25% 30.04 in - SSW 6.9 mph - N/A   Clear
12:00 PM 75.2 °F 30.2 °F 19% 30.01 in - SE 2.3 mph - N/A   Clear
1:00 PM 77.0 °F 26.6 °F 16% 29.98 in - WSW 5.8 mph - N/A   Clear
1:49 PM 80.6 °F 28.4 °F 15% 29.95 in - WNW 4.6 mph - N/A   Clear
2:00 PM 81 °F 26 °F 6%  in 25 mi SW 3.5 mph - -   Scattered Clouds
2:00 PM 80.6 °F 26.6 °F 14% 29.95 in - SW 2.3 mph - N/A   Clear
3:00 PM 80.6 °F 24.8 °F 13% 29.92 in - West 5.8 mph - N/A   Clear
3:38 PM 84.2 °F 23.0 °F 11% 29.89 in - WSW 5.8 mph - N/A   Clear
4:00 PM 84.2 °F 21.2 °F 10% 29.89 in - SW 5.8 mph - N/A   Clear
5:00 PM 84 °F 20 °F 4%  in 25 mi NW 5.8 mph - -   Scattered Clouds
5:00 PM 84.2 °F 21.2 °F 10% 29.86 in - NW 4.6 mph - N/A   Clear
6:00 PM 80.6 °F 17.6 °F 10% 29.89 in - WSW 10.4 mph - N/A   Clear
7:00 PM 73.4 °F 23.0 °F 15% 29.89 in - SSW 5.8 mph - N/A   Clear
8:00 PM 70 °F 22 °F 8%  in 25 mi SSW 6.9 mph - -   Scattered Clouds
8:00 PM 69.8 °F 23.0 °F 17% 29.92 in - SSW 6.9 mph - N/A   Clear
9:00 PM 64.4 °F 24.8 °F 22% 29.92 in - South 5.8 mph - N/A   Unknown
10:00 PM 64.4 °F 24.8 °F 22% 29.92 in - South 2.3 mph - N/A   Unknown
11:00 PM 62 °F 22 °F 12%  in - South 2.3 mph - -  
11:00 PM 60.8 °F 23.0 °F 23% 29.92 in - South 2.3 mph - N/A   Unknown